This is the latest recevied weather packets stored in our database for station/object KJ4W. If no packets are shown the sender has not sent any weather packets the latest 10 day(s).
| Time | Temp. | Humidity | Pressure | Rain* | Wind** | Luminosity | Snow |
|---|---|---|---|---|---|---|---|
| 1777913938 | 25.56° C | 49% | 1011.2 hPa | 0 mm | - | - | - |
| 1777913029 | 25.56° C | 49% | 1011.3 hPa | 0 mm | - | - | - |
| 1777912127 | 25° C | 51% | 1011.4 hPa | 0 mm | - | - | - |
| 1777911228 | 24.44° C | 50% | 1011.8 hPa | 0 mm | - | - | - |
| 1777910328 | 23.89° C | 53% | 1012 hPa | 0 mm | - | - | - |
| 1777909429 | 23.89° C | 53% | 1012.1 hPa | 0 mm | - | - | - |
| 1777908527 | 23.33° C | 58% | 1012.1 hPa | 0 mm | - | - | - |
| 1777907626 | 22.78° C | 58% | 1012.3 hPa | 0 mm | - | - | - |
| 1777906728 | 22.22° C | 60% | 1012.3 hPa | 0 mm | - | - | - |
| 1777905826 | 21.67° C | 62% | 1012.3 hPa | 0 mm | - | - | - |
| 1777904928 | 21.11° C | 62% | 1012.6 hPa | 0 mm | - | - | - |
| 1777904027 | 20.56° C | 66% | 1012.6 hPa | 0 mm | - | - | - |
| 1777903127 | 19.44° C | 65% | 1012.5 hPa | 0 mm | - | - | - |
| 1777902226 | 18.89° C | 67% | 1012.6 hPa | 0 mm | - | - | - |
| 1777901328 | 18.33° C | 67% | 1012.7 hPa | 0 mm | - | - | - |
| 1777900427 | 17.78° C | 69% | 1012.6 hPa | 0 mm | - | - | - |
| 1777899527 | 17.22° C | 70% | 1012.4 hPa | 0 mm | - | - | - |
| 1777898627 | 16.67° C | 71% | 1012.4 hPa | 0 mm | - | - | - |
| 1777897727 | 16.11° C | 71% | 1012.4 hPa | 0 mm | - | - | - |
| 1777896826 | 15.56° C | 71% | 1012.4 hPa | 0 mm | - | - | - |
| 1777895926 | 15.56° C | 71% | 1012.3 hPa | 0 mm | - | - | - |
| 1777895027 | 15° C | 71% | 1012.2 hPa | 0 mm | - | - | - |
| 1777894125 | 15° C | 70% | 1012.2 hPa | 0 mm | - | - | - |
| 1777893227 | 15° C | 70% | 1012.1 hPa | 0 mm | - | - | - |
| 1777892327 | 15° C | 68% | 1012 hPa | 0 mm | - | - | - |
* Rain latest hour (hover to see other rain measurements)
** Current wind speed in m/s (hover to see current wind gust speed)